This demonstration page uses our WeatherBlox Daily Observations layout. Learn more.

Left ArrowRight Arrow

41.86663, -103.66717

Hourly Observations for January 2, 2015

Temp ( °F °C ) Dew Point ( °F °C ) Humidity (%) Winds ( mph kmh ) Pressure ( in mb ) Visibility ( mi km ) Precip ( " mm )
12:53 am 00:53 Cloudy 25 -3.9 19 -7.2 78 78 WSW 5 7 30.20 1023 10 16 0.00 0.00
1:53 am 01:53 Cloudy 26 -3.3 18 -7.8 71 71 Calm 30.19 1022 10 16 0.00 0.00
2:53 am 02:53 Cloudy 24 -4.4 19 -7.2 81 81 N 3 6 30.19 1022 10 16 0.00 0.00
3:53 am 03:53 Cloudy 26 -3.3 20 -6.7 78 78 NW 5 7 30.17 1022 10 16 0.00 0.00
4:53 am 04:53 Cloudy 25 -3.9 20 -6.7 81 81 Calm 30.16 1021 10 16 0.00 0.00
5:53 am 05:53 Cloudy 24 -4.4 21 -6.1 88 88 Calm 30.14 1021 10 16 0.00 0.00
6:53 am 06:53 Cloudy 24 -4.4 21 -6.1 88 88 Calm 30.14 1021 8 13 0.00 0.00
7:53 am 07:53 Partly Cloudy 25 -3.9 21 -6.1 85 85 Calm 30.14 1021 7 11 0.00 0.00
8:53 am 08:53 Partly Cloudy with Mist and Fog 23 -5 20 -6.7 88 88 ESE 5 7 30.14 1021 6 10 0.00 0.00
9:53 am 09:53 Mostly Cloudy with Mist and Fog 23 -5 20 -6.7 88 88 SE 6 9 30.14 1021 5 8 0.00 0.00
10:53 am 10:53 Sunny with Mist and Fog 26 -3.3 23 -5 88 88 ESE 5 7 30.09 1019 6 10 0.00 0.00
11:53 am 11:53 Sunny 30 -1.1 25 -3.9 82 82 Calm 30.03 1017 8 13 0.00 0.00
12:53 pm 12:53 Mostly Sunny 31 -0.6 26 -3.3 82 82 E 3 6 29.99 1016 7 11 0.00 0.00
1:53 pm 13:53 Cloudy 30 -1.1 26 -3.3 85 85 ESE 6 9 29.97 1015 7 11 0.00 0.00
2:53 pm 14:53 Sunny 32 0 25 -3.9 75 75 Calm 29.95 1014 9 14 0.00 0.00
3:53 pm 15:53 Sunny 27 -2.8 23 -5 85 85 Calm 29.93 1014 8 13 0.00 0.00
4:53 pm 16:53 Clear 20 -6.7 18 -7.8 92 92 E 7 11 29.94 1014 8 13 0.00 0.00
5:53 pm 17:53 Clear 19 -7.2 16 -8.9 88 88 E 3 6 29.93 1014 8 13 0.00 0.00
6:53 pm 18:53 Clear 14 -10 11 -11.7 88 88 NE 5 7 29.93 1014 8 13 0.00 0.00
7:53 pm 19:53 Clear 13 -10.6 11 -11.7 92 92 E 5 7 29.93 1014 8 13 0.00 0.00
8:30 pm 20:30 Partly Cloudy with Mist and Fog 14 -10 12 -11 92 92 ESE 5 7 30.06 1018 4 6 0.00 0.00
8:33 pm 20:33 Mostly Cloudy with Mist and Fog 14 -10 12 -11.1 92 92 SE 5 7 30.06 1018 2 3 0.00 0.00
8:38 pm 20:38 Mostly Cloudy with Freezing Fog 12 -11 12 -11 100 100 SE 5 7 30.09 1019 0 0 0.00 0.00
8:49 pm 20:49 Mostly Cloudy with Freezing Fog 12 -11 12 -11 100 100 Calm 30.09 1019 0 0 0.00 0.00
8:53 pm 20:53 Mostly Cloudy with Freezing Fog 11 -11.7 10 -12.2 96 96 Calm 29.94 1014 0 0 0.00 0.00
9:14 pm 21:14 Mostly Cloudy with Mist and Fog 10 -12 9 -13 92 92 N 8 13 30.06 1018 1 1 0.00 0.00
9:17 pm 21:17 Partly Cloudy with Mist and Fog 11 -11.7 9 -12.8 92 92 N 8 13 30.06 1018 1 2 0.00 0.00
9:21 pm 21:21 Partly Cloudy with Mist and Fog 13 -10.6 11 -11.7 92 92 NNE 7 11 30.06 1018 3 5 0.00 0.00
9:53 pm 21:53 Clear with Mist and Fog 11 -11.7 9 -12.8 92 92 N 7 11 29.92 1013 6 10 0.00 0.00
10:53 pm 22:53 Clear with Mist and Fog 10 -12.2 8 -13.3 92 92 SSE 6 9 29.93 1014 5 8 0.00 0.00
11:53 pm 23:53 Clear 9 -12.8 6 -14.4 88 88 ENE 6 9 29.93 1014 7 11 0.00 0.00

Powered by AerisWeather